This demonstration page uses our WeatherBlox Daily Observations layout. Learn more.

41.55636, -103.73856

Hourly Observations for April 25, 2019

Temp ( °F °C ) Dew Point ( °F °C ) Humidity (%) Winds ( mph kmh ) Pressure ( in mb ) Visibility ( mi km ) Precip ( " mm )
12:01 am 00:01 Cloudy with Rain 48 8.9 45 7.2 89 89 N 26 43 30 1016 6 9.656064 0.01 0.254
12:53 am 00:53 Cloudy with Light Rain 48 8.9 45 7.2 89 89 N 14 22 29.97 1015 10 16.09344 0.08 2.032
1:53 am 01:53 Cloudy with Light Rain 47 8.3 45 7.2 93 93 WNW 7 11 29.97 1015 7 11.265408 0.02 0.508
2:53 am 02:53 Cloudy 47 8.3 45 7.2 93 93 WNW 10 17 29.97 1015 10 16.09344 0.01 0.254
3:53 am 03:53 Clear 46 7.8 45 7.2 96 96 WNW 8 13 29.97 1015 10 16.09344 0 0
4:53 am 04:53 Clear 45 7.2 43 6.1 93 93 WNW 13 20 30 1016 10 16.09344 0 0
5:53 am 05:53 Clear 44 6.7 41 5 89 89 NW 13 20 30.03 1017 10 16.09344 0 0
6:53 am 06:53 Sunny 45 7.2 41 5 86 86 NNW 13 20 30.06 1018 10 16.09344 0 0
7:53 am 07:53 Sunny 49 9.4 43 6.1 80 80 NW 17 28 30.09 1019 10 16.09344 0 0
8:53 am 08:53 Sunny 55 12.8 42 5.6 62 62 NW 21 33 30.09 1019 10 16.09344 0 0
9:53 am 09:53 Sunny 58 14.4 39 3.9 50 50 N 21 33 30.09 1019 10 16.09344 0 0
10:53 am 10:53 Mostly Sunny 60 15.6 35 1.7 39 39 N 16 26 30.09 1019 10 16.09344 0 0
11:53 am 11:53 Sunny 62 16.7 31 -0.6 31 31 N 16 26 30.09 1019 10 16.09344 0 0
12:53 pm 12:53 Sunny 63 17.2 31 -0.6 30 30 NW 18 30 30.09 1019 10 16.09344 0 0
1:53 pm 13:53 Sunny 64 17.8 31 -0.6 29 29 NW 14 22 30.09 1019 10 16.09344 0 0
2:53 pm 14:53 Mostly Cloudy 66 18.9 33 0.6 29 29 NNE 16 26 30.09 1019 10 16.09344 0 0
3:53 pm 15:53 Mostly Cloudy 64 17.8 32 0 30 30 N 9 15 30.09 1019 10 16.09344 0 0
4:53 pm 16:53 Partly Cloudy 63 17.2 31 -0.6 30 30 N 8 13 30.09 1019 10 16.09344 0 0
5:53 pm 17:53 Sunny 65 18.3 32 0 29 29 NNE 8 13 30.06 1018 10 16.09344 0 0
6:53 pm 18:53 Sunny 62 16.7 33 0.6 34 34 NNE 6 9 30.06 1018 10 16.09344 0 0
7:53 pm 19:53 Clear 53 11.7 41 5 64 64 ENE 16 26 30.09 1019 10 16.09344 0 0
8:53 pm 20:53 Clear 49 9.4 40 4.4 71 71 E 13 20 30.12 1020 10 16.09344 0 0
9:53 pm 21:53 Clear 47 8.3 40 4.4 77 77 SSE 5 7 30.15 1021 10 16.09344 0 0
10:53 pm 22:53 Clear 44 6.7 39 3.9 83 83 ESE 7 11 30.15 1021 10 16.09344 0 0
11:53 pm 23:53 Clear 41 5 38 3.3 89 89 E 6 9 30.15 1021 10 16.09344 0 0

Powered by AerisWeather